Flag for Turkmenistan Weather past 2 weeks in Ashgabat, Turkmenistan

Now
36 °F

Sunny.


Feels Like: 28 °F
Forecast: 34 / 54 °F
Wind: 10 mph from Southeast

Location: Ashgabat

Current Time: Mar 1, 2015 at 10:04:58 AM

Latest Report: Mar 1, 2015 at 9:00 AM


Visibility: N/A

Pressure: 30.04 "Hg

Humidity: 81%

Dew point: 30 °F

Location of AshgabatLocation

Historic Weather in Ashgabat — Graph

°F

Ashgabat temperature yesterday

Maximum temperature yesterday: 48 °F (at 3:00 PM)
Minimum temperature yesterday: 36 °F (at 7:00 AM)
Average temperature yesterday: 42 °F

Past Weeks' High & Low Weather Summary

 TemperatureHumidityPressure
High54 °F (Feb 16, 4:00 PM)100% (Feb 14, 9:30 AM)30.54 "Hg (Feb 14, 9:30 AM)
Low30 °F (Feb 22, 11:30 PM)44% (Feb 25, 2:00 PM)29.77 "Hg (Feb 21, 5:00 AM)
Average42 °F87%30.12 "Hg
* Reported Feb 14 9:00 AM — Mar 1 9:00 AM, Ashgabat, Weather by CustomWeather, © 2015

Note: Actual official high and low records may vary slightly from our data, if they occured in-between our weather recording intervals... More about our weather records

Advertising

Ashgabat weather history for previous 24 hours

 ConditionsComfort  
Time TempWeatherWind HumidityBarometerVisibility
9:00 AM
Sun, Mar 1
36 °FSunny.10 mph81%30.04 "HgN/A
8:00 AM34 °FClear.8 mph87%30.04 "HgN/A
7:30 AM32 °FClear.6 mph93%30.04 "HgN/A
7:00 AM34 °FClear.3 mph87%30.04 "HgN/A
6:30 AM34 °FClear.6 mph87%30.04 "HgN/A
6:00 AM34 °FClear.6 mph87%30.04 "HgN/A
5:00 AM36 °FClear.8 mph81%30.04 "HgN/A
4:00 AM36 °FClear.6 mph87%30.04 "HgN/A
3:00 AM36 °FClear.8 mph87%30.04 "HgN/A
2:00 AM36 °FClear.6 mph87%30.07 "HgN/A
1:00 AM37 °FClear.8 mph81%30.09 "HgN/A
12:00 AM39 °FClear.8 mph75%30.12 "HgN/A
11:00 PM
Sat, Feb 28
41 °FClear.13 mph70%30.12 "HgN/A
10:00 PM43 °FPassing clouds.13 mph66%30.15 "HgN/A
9:00 PM43 °FPartly cloudy.10 mph66%30.15 "HgN/A
8:00 PM45 °FPassing clouds.13 mph53%30.18 "HgN/A
7:00 PM46 °FPartly sunny.13 mph53%30.18 "HgN/A
6:00 PM48 °FPartly sunny.15 mph50%30.18 "HgN/A
5:00 PM48 °FBroken clouds.13 mph50%30.21 "HgN/A
4:00 PM48 °FScattered clouds.10 mph50%30.21 "HgN/A
3:00 PM48 °FScattered clouds.10 mph50%30.24 "HgN/A
2:00 PM46 °FScattered clouds.8 mph53%30.24 "HgN/A
1:00 PM46 °FScattered clouds.15 mph53%30.30 "HgN/A
12:00 PM45 °FBroken clouds.10 mph57%30.30 "HgN/A
11:00 AM43 °FBroken clouds.8 mph61%30.33 "HgN/A
10:00 AM39 °FPartly sunny.8 mph75%30.36 "HgN/A
Weather by CustomWeather, © 2015

See weather overviewHow to use our weather pages